GFSWCAN_700_rhum_141.txt.gz
RH
72 74 55 36 79 74 87 85 80 72 71 64 51 42 33 28 22 12 11 14 20 30 37 50 55 74 85 90 100 100 100 98 100 93 86 78 71 64 50 44 35 33 40 67 100 96 74 19 20 21 22 22 27 38
68 70 82 83 96 100 100 100 88 83 80 62 33 23 26 24 11 5 5 12 21 35 28 32 38 61 73 72 99 100 99 100 98 98 90 80 67 58 55 52 57 54 53 46 49 38 28 24 28 38 56 85 71 59
80 97 90 100 100 100 100 100 98 82 60 33 26 24 16 12 5 4 4 10 13 32 26 35 43 49 84 99 99 99 99 98 93 98 99 99 99 96 95 89 84 80 76 69 73 64 62 66 67 73 75 96 79 83
100 100 100 100 100 99 98 90 55 27 17 25 19 8 4 3 2 2 4 5 20 70 54 30 47 74 62 66 80 87 90 79 70 91 100 100 99 99 95 90 95 93 94 77 81 78 70 73 82 92 89 95 78 69
99 99 99 98 99 97 76 17 10 7 4 4 4 2 2 2 2 2 2 3 8 17 14 15 22 31 31 15 24 36 37 58 75 98 100 99 100 100 99 100 100 98 87 75 66 64 86 96 84 80 81 76 68 67
98 97 96 94 62 41 24 8 5 4 3 2 2 2 2 2 2 2 2 3 4 11 49 99 35 11 17 43 43 40 44 65 96 96 99 99 100 100 99 100 100 70 54 46 54 70 73 67 69 68 69 64 63 59
93 87 90 93 74 48 30 15 10 6 3 3 3 3 3 3 3 3 4 8 5 9 74 75 65 67 80 71 46 34 41 55 69 81 74 73 60 100 98 98 32 48 45 39 44 58 74 78 66 67 65 62 56 54
77 62 54 52 61 43 29 38 35 26 9 6 6 6 6 5 5 4 4 5 5 8 31 77 87 65 64 39 32 33 55 59 59 64 70 58 81 100 93 8 20 36 36 42 50 68 80 88 73 68 70 70 68 66
91 93 83 66 46 29 14 13 12 11 10 10 10 9 9 8 8 7 6 6 6 9 57 64 72 62 36 22 30 61 89 96 91 90 65 62 76 73 4 22 26 38 61 64 66 65 68 73 74 75 80 82 80 74
32 21 25 34 45 25 12 13 11 11 10 11 10 11 12 9 8 8 9 8 9 21 59 28 12 16 25 38 53 68 94 87 77 62 75 85 30 12 21 36 54 60 74 70 55 57 68 76 84 88 91 88 84 78
13 13 14 14 11 10 12 12 13 12 11 12 12 12 11 10 11 13 14 22 48 84 50 21 17 16 27 41 62 86 93 83 94 67 80 80 68 41 45 62 72 78 50 48 65 80 80 80 78 81 87 93 90 86
19 18 18 17 18 22 18 14 16 18 16 18 14 12 12 18 22 25 43 74 56 49 40 23 30 36 45 53 75 99 98 96 82 93 98 85 69 69 77 93 95 68 70 85 91 94 93 92 95 95 100 97 97 92
24 20 19 19 20 22 27 30 25 25 26 39 46 34 18 31 57 94 81 68 59 50 54 68 91 95 91 95 99 96 90 93 90 99 92 78 82 89 96 88 92 94 98 100 100 99 98 97 96 98 97 98 92 97
36 33 25 21 19 20 27 41 47 62 62 65 76 69 46 46 46 40 55 63 67 74 86 82 83 100 99 100 88 89 69 82 91 89 85 96 89 99 100 100 98 98 97 97 96 98 98 99 100 98 89 72 75 60
48 43 38 32 26 27 32 54 86 82 74 73 76 67 67 61 49 53 56 72 87 99 97 97 79 73 80 82 88 87 84 87 76 80 80 94 100 96 95 95 96 94 94 94 96 92 93 95 95 95 95 90 86 74
69 60 49 45 42 43 64 83 95 97 93 87 86 63 44 55 51 53 57 68 72 72 93 98 94 95 82 72 70 71 70 78 71 81 90 97 86 88 97 93 94 76 63 58 40 37 34 45 76 81 90 62 56 53
98 60 63 66 67 79 84 90 99 100 100 96 58 45 52 52 52 61 80 73 87 94 92 90 96 92 80 86 92 76 75 80 77 80 90 79 73 67 59 69 70 53 52 46 41 33 28 25 22 22 24 45 66 31
90 82 78 77 84 93 94 99 100 99 89 67 63 56 53 46 51 54 54 55 58 61 64 72 78 86 99 91 69 55 52 50 64 60 48 44 45 58 55 45 40 57 59 45 41 39 35 28 23 19 16 14 15 24
97 94 93 89 97 100 99 98 99 97 93 88 74 60 62 61 61 60 56 55 60 66 88 90 100 93 79 67 63 52 47 48 45 40 39 38 36 37 40 36 29 28 44 43 46 56 47 33 26 25 20 17 13 12
96 96 95 95 100 99 99 99 96 95 84 72 73 70 61 58 53 55 52 52 63 88 99 91 74 57 48 41 45 44 43 49 56 52 43 47 47 38 36 38 43 40 55 50 42 53 53 34 27 20 16 13 12 11
95 89 98 100 100 98 99 98 98 93 88 88 67 66 70 61 56 54 52 57 80 74 65 50 45 41 40 42 39 40 61 61 49 56 60 46 40 43 40 42 44 46 46 43 45 46 53 32 19 18 14 13 14 13
71 88 91 92 95 100 98 98 97 91 99 90 89 87 82 73 70 63 74 76 61 43 41 33 32 37 40 37 31 30 34 36 34 31 36 46 46 39 38 41 41 37 36 48 47 55 62 35 23 19 16 15 16 15
93 99 93 97 99 99 96 90 92 81 86 86 79 74 68 60 54 66 81 48 34 22 25 30 36 41 49 48 45 47 39 39 45 46 47 45 47 50 45 37 36 41 42 47 62 62 61 48 29 21 19 15 15 17
100 99 99 99 91 95 81 75 70 72 76 80 100 81 56 52 65 81 56 25 21 26 32 40 52 62 64 58 58 64 45 48 64 64 60 65 52 39 40 32 29 30 41 47 52 62 57 55 44 25 21 18 16 17
100 98 99 97 94 100 93 84 72 81 78 62 65 64 49 63 79 70 37 33 25 31 44 60 68 55 56 58 70 84 79 88 92 87 64 72 73 75 63 68 66 61 57 56 47 57 62 61 47 33 28 25 21 22
99 94 94 96 90 82 79 77 72 57 67 91 79 75 68 89 92 74 31 30 42 55 60 66 73 62 56 60 79 81 84 90 97 90 64 73 81 87 77 70 65 56 63 72 74 66 68 62 53 45 39 36 34 31
96 90 74 57 62 72 79 89 80 91 91 82 67 78 94 100 87 34 40 56 66 75 77 74 84 82 77 57 60 59 63 68 74 72 62 59 59 64 64 60 51 39 49 57 69 79 74 66 54 51 51 48 41 33
88 84 81 66 67 58 64 69 79 74 64 69 79 85 92 77 51 43 60 72 69 78 79 72 63 67 68 67 59 56 50 47 52 58 58 54 44 46 55 56 50 42 42 40 47 63 67 68 69 65 59 49 38 30
68 70 95 99 100 97 92 77 58 35 33 50 66 63 47 46 50 58 58 70 88 82 64 53 41 46 47 43 42 50 57 60 62 58 56 52 45 32 28 42 48 44 39 41 47 49 41 43 41 37 36 34 30 26
66 63 66 63 66 55 36 43 31 30 38 45 52 52 64 62 60 70 72 57 58 56 47 46 41 41 44 50 48 42 40 45 43 40 38 35 33 32 28 32 36 36 34 31 30 31 38 40 38 34 33 34 35 35
53 56 50 46 40 26 26 30 36 43 52 66 68 85 90 81 62 48 55 46 56 60 58 52 48 41 36 32 38 42 36 31 34 34 36 39 38 34 31 30 30 29 34 34 34 34 36 39 38 42 42 39 40 41
51 49 45 44 42 43 49 56 65 72 79 77 70 74 81 85 86 65 44 48 56 64 66 64 61 56 58 58 57 58 54 45 45 47 46 41 38 38 39 39 37 36 40 43 47 47 46 55 64 65 58 50 44 33
56 58 59 64 64 63 66 89 95 91 86 81 73 65 56 60 51 38 65 77 81 81 74 72 73 72 69 69 65 60 61 58 57 59 55 49 51 60 72 68 58 56 59 61 62 74 85 86 80 66 44 35 30 33

GFSWCAN_700_rhum_144.txt.gz
RH
36 28 28 45 62 72 72 64 49 49 53 54 56 71 76 68 45 37 28 22 24 24 21 28 29 34 35 54 96 75 81 85 96 93 93 89 84 71 64 60 55 44 48 67 100 98 77 27 31 27 27 34 60 78
94 93 94 82 81 77 75 67 69 84 90 95 80 76 79 66 31 19 29 27 16 19 26 22 20 34 51 59 64 71 80 98 98 92 92 94 85 80 72 63 62 56 54 51 59 55 56 58 63 68 65 78 85 80
96 93 84 82 94 95 80 77 88 96 100 100 99 84 79 48 23 22 15 10 59 25 19 30 23 28 40 50 73 66 82 97 99 100 98 100 100 99 96 86 82 78 74 77 81 74 63 62 70 76 82 83 85 91
98 89 85 99 93 98 100 100 99 99 99 100 97 75 52 24 13 7 6 8 15 18 28 24 34 23 30 56 39 81 100 99 96 97 93 94 99 100 99 100 100 96 80 66 78 60 56 72 85 87 88 90 84 79
98 97 98 100 98 100 100 100 98 97 95 81 49 37 14 7 5 4 3 4 10 19 21 21 19 14 14 16 21 23 42 91 90 86 79 100 100 97 98 100 91 44 56 82 70 65 92 89 67 58 75 81 78 78
99 98 97 96 98 100 99 97 94 84 35 9 5 4 4 3 3 3 3 4 4 3 5 11 28 21 11 6 3 6 17 29 40 41 55 86 93 100 98 95 86 60 52 55 76 75 68 62 57 55 64 64 61 55
97 95 97 99 98 96 95 75 34 23 9 6 6 4 4 4 4 4 5 8 8 12 25 34 30 12 13 21 32 46 25 26 34 58 72 92 96 100 100 96 10 37 45 60 45 51 50 43 52 56 60 59 56 58
95 95 93 93 95 94 94 95 83 73 72 64 46 25 14 6 6 7 6 6 7 8 16 32 23 23 43 48 41 35 23 15 25 29 44 41 60 92 90 7 16 20 27 38 41 60 69 78 69 66 68 66 63 68
87 90 94 90 70 49 52 38 41 52 51 39 26 16 12 10 9 9 9 8 8 11 23 28 30 15 16 14 23 31 43 61 62 62 53 72 93 90 16 28 18 21 38 45 56 69 48 48 61 70 77 82 82 85
46 63 60 59 60 70 84 81 62 44 50 45 22 12 11 10 9 10 12 13 13 21 17 15 13 19 30 39 54 67 87 92 94 78 80 83 76 16 24 30 39 44 60 75 70 46 42 46 60 75 81 86 86 84
12 14 22 30 30 26 20 18 25 24 22 13 13 14 15 14 14 18 18 28 60 76 39 19 32 43 47 56 78 97 99 94 98 76 82 83 68 39 50 56 63 74 94 90 60 42 55 66 81 85 85 92 93 88
19 16 15 14 15 16 17 17 17 16 16 15 15 15 16 23 26 24 50 48 46 54 60 44 36 48 56 61 91 100 92 88 62 86 98 84 58 61 69 76 80 92 86 61 76 95 100 100 97 98 98 99 96 97
27 23 19 19 19 19 21 25 22 20 18 20 20 24 21 31 65 65 67 63 94 66 62 84 95 98 100 100 98 94 94 96 81 92 83 69 77 81 78 94 96 89 94 93 93 96 97 97 99 94 89 97 96 97
41 36 33 29 24 22 23 26 26 29 38 42 44 45 38 41 31 35 43 53 65 99 100 100 99 95 93 84 91 91 71 72 81 74 65 61 71 88 96 96 100 95 90 90 96 94 90 83 74 63 59 70 88 95
60 51 48 42 37 31 39 76 86 68 68 65 51 37 25 24 20 23 29 50 80 99 99 98 96 92 91 95 92 86 78 66 74 73 81 97 92 98 97 92 86 82 72 75 66 60 54 54 38 32 32 53 58 64
88 73 56 58 53 50 83 92 96 98 96 92 66 38 25 25 24 23 28 44 84 96 97 97 93 92 88 84 78 71 65 60 65 94 93 84 83 88 91 78 65 60 47 46 46 44 44 41 37 35 27 25 23 25
100 74 79 78 73 72 81 92 100 97 99 92 46 35 32 33 28 31 30 37 72 99 96 95 95 90 85 79 84 97 83 81 78 77 68 74 92 72 72 77 58 45 35 34 38 45 41 34 34 32 30 29 26 20
85 75 86 90 91 97 95 99 100 100 86 63 55 40 39 39 47 50 50 57 69 71 71 75 85 98 96 94 83 69 55 42 37 36 37 37 36 34 34 32 33 33 31 30 28 32 31 27 26 26 31 34 33 21
93 96 96 93 97 100 100 100 98 98 96 89 67 55 53 51 51 51 55 57 58 68 86 94 100 93 84 60 49 39 35 36 36 39 47 51 41 39 48 47 43 42 33 36 36 35 37 35 48 43 38 49 38 21
97 98 98 100 100 99 99 98 96 95 81 69 70 64 60 57 52 54 54 57 64 91 100 97 68 56 49 38 37 42 42 42 49 52 44 37 40 59 52 56 55 48 40 33 29 25 29 30 32 49 49 55 39 16
99 96 97 100 100 99 100 98 97 96 95 93 76 68 67 61 62 63 57 60 78 73 71 53 44 37 35 36 34 37 46 48 48 52 57 57 38 48 48 39 30 29 33 32 28 28 36 33 30 40 52 62 39 18
88 92 97 99 98 99 98 94 97 98 100 97 84 88 96 83 73 63 68 80 69 47 38 32 32 33 30 35 42 43 45 52 61 63 52 52 55 53 49 37 34 34 33 31 36 36 33 37 44 54 61 67 43 22
96 96 98 96 100 100 88 66 80 76 94 99 96 99 84 67 52 48 65 48 36 23 26 31 29 34 51 52 60 57 53 57 60 54 44 36 35 35 37 36 30 38 42 37 38 36 32 31 46 60 63 70 46 26
99 99 98 100 100 98 95 99 90 86 98 98 71 65 53 50 47 65 72 36 22 23 24 31 54 65 61 61 62 52 42 61 60 69 82 76 50 40 49 53 56 54 44 50 59 62 64 48 51 57 67 90 66 35
100 98 95 97 99 99 91 90 80 71 61 54 59 53 54 71 79 81 61 26 19 23 30 62 74 83 87 86 79 70 73 89 99 83 86 100 97 94 83 75 67 50 52 66 64 68 75 72 66 66 72 89 66 42
98 91 96 97 96 81 77 85 80 56 52 56 55 56 53 78 92 89 34 23 24 32 42 56 70 84 94 94 97 84 80 94 97 88 70 86 90 90 74 68 62 42 49 60 65 63 55 66 72 78 77 82 70 66
94 90 90 74 81 78 74 72 65 77 69 55 48 62 96 100 95 32 21 23 35 42 46 55 66 82 89 86 87 73 63 65 76 72 58 59 63 68 68 61 46 33 41 41 47 57 52 45 48 62 73 69 65 62
98 93 80 77 76 70 72 72 74 73 68 69 76 80 92 76 45 28 35 36 38 48 70 79 77 72 79 70 63 64 52 47 52 53 51 44 43 44 46 45 48 47 54 52 43 46 46 39 40 44 61 64 56 52
73 72 71 69 75 73 66 62 55 49 58 71 65 60 51 44 40 42 41 56 77 94 94 87 73 68 62 62 59 48 44 41 41 38 36 32 27 27 44 55 54 52 51 50 46 50 46 41 36 38 42 44 41 37
66 71 71 64 62 52 43 43 34 44 62 64 66 62 63 62 54 75 81 73 75 76 69 71 72 68 60 67 60 48 45 43 41 42 39 35 35 36 32 32 34 39 46 48 45 42 41 36 31 31 32 36 38 37
50 59 67 60 46 32 34 39 38 39 44 53 65 83 89 80 77 64 72 65 69 63 57 55 56 58 68 65 66 64 45 52 67 63 61 56 48 41 40 40 44 46 47 46 43 38 32 33 39 45 45 43 45 49
45 49 61 55 39 49 59 63 63 66 70 77 80 87 82 84 74 43 54 65 60 67 75 83 79 72 79 79 78 79 81 75 73 77 80 75 67 64 63 60 60 63 66 65 58 52 53 46 48 55 55 58 72 74
50 49 55 60 55 55 60 90 90 81 77 72 66 63 59 64 62 69 81 78 79 80 80 90 96 97 97 97 97 96 95 88 79 73 69 70 70 71 72 71 75 77 81 87 88 70 64 70 72 71 80 83 74 65

GFSWCAN_700_rhum_150.txt.gz
RH
90 80 81 94 87 56 30 21 21 21 22 23 24 29 70 67 65 64 62 69 63 60 53 47 40 34 32 31 29 37 39 47 72 94 93 90 87 81 72 65 57 58 62 73 95 94 84 60 45 52 57 59 63 65
87 90 100 97 98 96 81 55 39 38 41 36 40 55 77 70 66 68 64 69 68 66 58 50 50 41 37 34 37 30 40 55 61 72 98 100 96 85 68 70 60 61 57 68 63 56 60 61 65 67 68 72 77 74
59 98 100 96 99 99 99 92 85 73 81 85 87 82 79 77 71 65 78 85 80 72 60 53 44 42 46 42 46 50 42 54 53 73 88 95 98 96 95 85 80 80 74 75 70 58 64 64 64 69 66 72 81 75
64 89 100 100 100 100 100 100 100 99 95 92 87 81 81 88 93 99 92 90 88 82 76 64 52 40 37 38 41 52 52 53 64 71 79 100 100 100 93 86 83 73 72 57 65 47 59 67 70 66 53 78 87 88
50 74 99 100 99 99 99 99 100 99 93 88 85 82 85 96 99 100 98 93 99 100 95 68 44 44 37 33 37 39 38 44 63 100 94 98 99 100 98 100 72 48 36 52 43 39 59 65 71 50 34 32 22 15
42 72 98 100 100 100 97 97 93 89 89 89 86 86 89 96 87 76 74 61 60 53 91 53 39 31 22 20 21 19 29 70 88 96 98 100 100 98 91 87 62 61 71 42 45 54 39 39 49 41 35 23 18 45
78 100 100 100 95 92 91 93 90 89 88 90 92 95 90 90 75 40 31 35 27 21 21 25 37 42 32 23 22 21 21 36 88 100 99 100 97 88 84 70 57 49 38 53 50 57 62 61 49 33 27 40 66 53
87 82 77 80 84 88 94 98 98 95 92 89 82 69 47 18 15 17 10 9 10 16 75 57 56 61 51 42 29 27 32 39 50 70 72 88 92 97 98 63 49 36 25 34 49 53 62 43 42 49 62 62 53 61
62 56 60 66 72 84 90 92 90 92 93 94 88 74 70 62 58 52 40 28 30 35 45 60 67 62 35 28 23 22 30 42 69 100 100 100 99 98 68 58 47 28 29 45 48 47 44 49 48 76 72 57 61 66
62 47 63 75 83 84 84 83 71 53 48 42 39 47 46 58 59 45 33 37 27 18 38 44 32 27 34 44 54 42 60 66 78 67 66 65 47 24 17 23 21 18 25 37 47 58 67 70 70 85 85 72 76 82
58 51 52 69 90 92 96 91 85 84 90 91 82 64 47 40 38 36 37 46 48 40 36 29 26 37 48 57 76 90 82 73 70 61 71 65 45 24 19 27 44 45 47 53 59 72 76 74 77 78 85 87 83 76
75 69 59 39 56 58 49 42 41 42 39 36 34 35 30 29 28 22 39 43 54 86 91 78 100 96 88 84 96 98 92 90 77 94 98 83 50 31 35 39 46 46 50 67 85 88 89 83 75 72 70 65 62 56
61 85 57 28 26 34 50 31 28 30 31 32 29 29 22 27 33 26 38 47 46 76 66 74 81 96 99 97 100 90 100 94 92 96 87 69 49 56 66 70 69 61 56 73 83 90 87 81 74 65 56 52 48 45
93 68 93 76 83 100 100 100 89 60 41 35 33 29 26 27 21 24 18 16 25 35 48 64 92 99 98 99 97 96 91 97 96 96 90 79 82 84 87 77 74 84 95 95 89 85 82 76 64 61 62 56 52 48
38 47 89 98 99 96 66 99 100 93 67 51 38 29 21 22 21 18 17 15 22 26 27 27 32 42 61 87 91 84 90 90 70 63 61 78 93 96 97 98 98 96 92 84 83 77 61 48 36 32 31 32 32 34
46 46 41 40 39 47 73 95 97 86 73 56 46 27 20 19 19 20 22 26 29 37 40 42 58 76 69 68 66 83 84 77 72 75 92 97 95 95 83 76 67 68 67 62 43 43 44 43 30 29 28 27 25 26
51 42 48 55 62 70 80 84 86 90 88 67 44 36 35 32 33 35 36 39 47 54 60 69 84 80 72 80 74 70 86 73 72 68 58 43 33 29 30 32 30 28 27 27 28 31 31 32 32 30 33 34 36 36
44 49 61 75 92 100 96 96 100 99 82 55 44 38 39 40 40 44 52 56 60 62 67 83 96 98 98 94 73 46 35 24 24 27 30 33 36 37 35 33 31 31 32 31 30 31 31 29 26 26 36 45 46 42
55 64 86 97 98 95 98 98 98 87 69 56 46 48 47 41 32 34 46 51 62 66 82 96 100 94 69 38 32 29 27 31 40 42 48 45 37 36 38 33 29 27 26 27 29 29 30 33 34 26 28 48 43 35
74 89 96 97 98 98 98 97 93 95 76 56 50 52 55 42 44 39 39 43 63 84 100 97 79 53 43 36 34 38 41 46 52 54 46 33 34 40 31 31 34 40 48 48 47 48 48 48 46 32 30 37 39 39
99 97 100 98 98 98 99 97 89 82 85 81 63 59 61 64 62 63 61 60 78 93 94 69 51 45 41 40 40 42 36 37 46 52 47 46 34 44 43 48 55 50 40 40 43 43 51 50 39 34 40 36 44 56
95 100 98 98 98 98 98 98 98 96 95 87 88 84 83 81 74 67 60 65 63 60 51 37 42 42 27 27 30 36 42 49 52 51 40 46 56 58 57 60 63 52 48 51 61 75 74 52 39 36 39 52 69 80
94 90 100 98 98 97 98 97 98 98 99 97 94 94 86 64 46 44 73 58 50 36 27 28 29 35 49 45 45 42 45 73 87 84 79 78 81 85 86 75 74 68 56 42 63 77 78 74 78 82 79 81 86 83
99 98 96 97 97 97 95 95 94 94 93 83 67 60 51 45 45 58 71 61 38 35 25 23 36 49 48 48 49 46 52 55 65 63 62 76 78 63 72 72 72 78 82 77 70 64 66 78 75 74 76 76 74 76
85 86 95 95 95 91 84 78 68 66 56 51 66 57 51 57 76 86 86 57 29 25 27 34 50 56 62 64 59 53 52 58 63 68 63 85 92 87 71 64 63 60 74 79 69 67 52 56 63 68 68 67 62 63
78 77 73 70 74 73 82 76 69 60 64 73 68 68 57 65 85 98 47 25 32 46 47 48 54 61 64 73 74 58 47 72 95 92 70 80 78 83 76 65 53 39 59 63 58 58 47 46 52 50 51 54 55 57
88 69 63 63 66 71 78 68 74 74 68 54 49 51 75 99 93 65 36 37 42 47 44 49 58 70 79 80 81 86 87 82 84 83 79 73 61 66 82 82 69 61 74 54 54 58 53 49 45 45 49 50 50 48
74 64 52 58 66 66 72 74 78 80 72 73 72 73 80 72 52 46 56 52 55 59 61 59 66 79 87 83 74 62 60 63 66 66 62 56 56 64 69 75 79 86 84 60 54 50 47 42 40 44 49 47 47 48
53 49 55 61 68 80 86 84 71 60 54 62 68 65 55 56 64 56 47 56 65 72 66 61 58 68 66 63 59 59 62 68 77 73 73 73 73 72 90 85 75 71 66 61 60 56 49 45 45 40 37 37 42 41
48 58 74 82 86 79 51 60 56 61 73 77 84 72 57 46 46 62 66 61 62 67 70 67 64 66 68 76 73 76 77 80 92 97 96 92 89 95 99 98 93 91 91 87 82 74 70 61 55 51 48 42 44 45
66 69 70 68 68 66 65 64 61 60 54 54 62 67 50 59 54 50 49 55 62 69 72 67 70 85 89 88 86 85 80 83 92 98 98 97 96 96 97 99 98 98 98 96 98 90 82 79 75 66 58 57 54 50
69 74 77 78 71 72 69 58 57 53 51 55 52 62 61 69 54 48 50 58 63 66 72 84 90 94 99 98 98 99 98 95 95 96 96 96 96 97 97 97 98 99 97 92 89 91 92 86 82 77 72 74 72 64
67 59 59 62 51 51 56 67 68 66 57 52 46 45 51 62 62 70 67 73 83 90 95 95 96 98 98 97 96 96 95 95 96 97 97 96 96 96 96 97 98 98 98 97 90 82 82 81 78 76 79 88 86 75

GFSWCAN_700_rhum_153.txt.gz
RH
68 56 64 60 56 51 57 71 87 85 57 33 23 22 22 25 24 41 67 63 60 55 55 59 57 53 48 45 43 54 54 46 48 57 73 73 92 81 74 67 62 57 58 65 97 99 80 57 62 60 64 62 60 60
67 76 52 54 70 94 70 86 81 80 88 85 72 52 44 38 45 41 56 63 62 60 55 61 61 63 56 50 49 46 49 64 64 54 67 83 87 83 66 69 57 61 55 60 60 57 60 66 71 70 71 69 70 70
2 4 8 26 43 94 100 95 96 100 100 94 86 85 80 77 70 64 60 68 69 70 67 65 61 64 64 58 59 60 73 72 76 78 84 95 92 84 77 71 64 70 69 72 70 61 62 67 73 79 80 80 82 74
2 2 2 6 30 69 98 100 100 100 99 100 98 87 86 84 85 82 78 82 90 89 79 71 74 71 74 73 58 51 62 68 76 80 100 100 100 97 80 63 60 62 66 69 68 65 62 64 70 66 64 61 58 55
3 3 5 16 41 93 100 99 98 98 96 99 100 99 92 86 81 78 83 91 87 90 94 100 92 70 66 70 56 47 39 39 55 61 94 100 100 100 95 84 66 68 71 82 47 45 57 55 64 65 49 39 35 29
5 4 4 12 44 66 100 100 100 96 95 100 98 92 89 88 85 86 86 82 79 74 84 92 95 76 61 44 35 29 22 23 33 45 63 91 97 100 97 93 81 72 73 57 35 30 25 25 33 35 34 44 48 33
9 8 8 10 38 93 97 97 95 92 92 94 93 93 92 90 89 91 81 76 66 53 52 46 37 43 47 44 38 33 37 33 36 46 65 80 82 96 93 78 79 97 94 74 62 29 20 30 51 41 41 35 28 34
22 36 46 78 100 99 98 94 90 90 92 93 95 96 95 86 73 66 50 36 25 18 22 34 35 49 52 49 47 49 46 38 38 50 78 90 92 100 95 77 81 68 67 56 42 43 47 53 50 55 56 49 48 73
70 90 81 78 74 73 69 77 92 97 99 100 97 93 83 62 52 39 23 16 14 19 36 37 57 57 62 54 42 35 34 35 39 54 88 83 75 94 76 81 83 79 80 58 57 74 93 95 65 66 60 54 52 80
77 96 73 62 61 62 71 88 94 96 100 95 92 85 89 88 85 84 81 78 66 66 68 66 66 65 67 62 60 50 60 57 56 88 83 100 76 32 61 43 37 36 37 50 68 75 66 66 79 84 78 80 88 88
44 90 82 68 72 84 83 81 79 73 67 64 65 64 60 59 58 51 47 50 53 46 43 41 36 36 49 50 60 79 71 70 83 75 80 74 57 33 34 35 38 46 54 67 72 73 68 85 96 91 86 91 86 74
98 92 84 79 83 95 99 99 94 92 89 81 73 67 63 51 34 32 30 41 47 69 76 78 90 93 79 81 94 99 94 95 83 96 98 86 53 47 46 54 62 58 63 76 74 88 100 100 97 94 83 77 74 72
91 94 96 100 97 86 95 75 54 42 40 39 35 33 29 35 34 27 28 45 40 47 53 84 92 84 88 92 99 90 98 94 88 98 89 68 64 69 78 91 91 91 96 95 99 100 100 100 98 97 92 85 81 80
96 97 97 96 100 69 88 99 82 41 35 35 39 28 22 25 22 22 19 20 28 27 32 35 33 47 72 84 89 97 91 91 89 95 87 96 92 88 98 96 97 97 98 98 98 99 95 90 67 50 40 44 37 41
96 90 89 98 84 85 99 96 96 97 74 43 32 34 23 22 22 18 17 16 22 28 32 34 34 38 39 42 55 59 77 67 63 72 78 96 94 95 96 96 93 91 82 72 52 41 39 36 30 23 24 26 27 28
90 98 98 99 100 98 95 94 98 100 92 68 52 26 21 21 22 21 27 29 30 34 38 43 51 56 56 58 59 60 70 65 58 62 64 63 53 48 31 28 30 30 33 38 34 31 28 27 27 27 25 25 26 28
96 76 66 83 93 79 77 79 91 98 88 68 38 29 27 25 28 35 38 43 44 48 54 64 77 73 73 75 70 60 54 44 39 36 32 33 35 28 28 31 34 34 32 32 32 30 29 29 28 29 29 27 29 31
67 55 77 76 67 79 92 90 98 96 72 40 33 33 37 42 42 42 41 45 53 63 62 68 86 87 90 82 68 53 47 40 46 46 46 40 27 22 24 28 26 28 29 28 29 29 28 31 40 42 41 41 42 38
58 58 69 69 66 74 87 91 95 89 69 60 49 46 46 44 45 49 50 54 58 70 88 85 100 69 56 46 40 38 41 53 50 42 39 36 34 31 34 30 29 27 28 30 34 41 48 44 40 42 46 54 55 47
63 69 74 79 88 98 99 99 88 83 62 52 46 42 45 44 46 44 42 45 54 65 60 69 49 36 47 43 50 54 54 57 62 60 42 30 24 29 26 32 35 36 39 44 50 53 53 52 60 78 80 70 62 44
85 78 91 95 99 99 99 93 90 84 79 65 48 47 49 47 46 42 43 58 68 62 62 55 43 46 49 46 43 44 46 54 53 40 42 41 30 40 43 58 68 68 63 59 65 70 76 67 62 78 95 86 66 50
87 92 97 98 99 98 98 97 98 93 95 88 76 68 66 60 55 50 64 71 67 54 36 33 36 37 31 30 32 33 40 36 34 40 39 42 43 59 70 69 70 70 66 63 74 86 85 75 83 75 86 98 100 86
96 98 98 99 99 99 97 97 99 98 99 97 94 97 89 78 80 78 71 59 42 35 34 32 26 32 42 42 47 52 48 45 45 45 46 49 65 67 65 56 67 77 68 64 87 87 84 77 71 81 78 82 96 96
97 100 99 98 98 97 95 96 96 98 98 97 97 97 95 91 72 58 55 45 38 33 26 29 41 51 49 45 52 52 53 60 61 58 54 56 54 54 58 54 55 66 79 85 83 90 82 78 70 63 64 62 68 79
99 98 96 96 96 96 94 96 96 98 93 90 80 66 58 61 64 62 63 49 36 26 29 38 48 55 56 50 51 54 52 57 59 56 43 52 61 65 63 72 76 66 74 86 71 83 81 79 68 60 56 57 62 65
61 68 71 70 70 70 62 61 52 46 52 62 68 67 61 67 69 63 52 30 27 31 35 48 54 54 51 58 52 40 40 54 71 76 52 60 70 76 72 69 65 44 58 92 97 93 89 85 82 51 47 48 51 53
56 52 51 45 40 39 50 52 57 70 74 78 77 81 91 99 85 57 35 36 44 44 49 58 70 78 74 56 58 63 66 67 72 77 74 68 65 63 71 74 70 73 93 93 82 83 81 82 79 58 46 44 44 46
66 52 44 50 49 49 55 58 60 66 71 72 82 83 88 78 38 32 34 35 52 62 67 62 65 76 82 78 75 72 65 66 68 68 66 65 68 79 90 98 97 97 99 98 100 94 87 85 74 62 51 44 42 45
36 38 41 42 48 52 55 62 67 67 68 87 85 77 69 59 41 38 40 51 56 59 62 65 60 72 65 68 69 74 80 88 93 86 81 76 74 76 90 91 97 97 97 98 99 98 96 92 87 77 59 55 55 48
36 42 45 49 56 57 56 60 68 74 83 86 82 57 43 30 33 47 52 53 58 62 58 54 56 73 76 84 83 82 91 100 98 98 96 92 91 94 97 100 99 98 98 97 97 100 100 96 98 82 69 68 65 56
58 61 62 61 60 62 69 75 72 71 66 54 62 63 37 50 48 50 53 56 54 56 56 59 72 86 87 88 91 89 81 87 95 98 98 97 97 97 97 97 97 97 97 97 98 97 98 97 93 88 86 85 80 67
69 82 90 74 51 64 64 60 59 57 56 58 54 62 62 60 54 52 56 58 61 69 76 87 91 93 96 97 99 100 99 95 96 97 97 96 96 97 97 97 98 98 97 97 99 98 97 91 88 92 95 95 87 78
67 60 59 58 49 53 60 78 78 74 64 62 60 59 57 57 56 63 71 77 88 92 95 96 96 97 97 97 95 94 97 99 99 97 97 97 97 98 99 98 97 97 98 98 98 96 96 87 85 91 95 96 90 86

GFSWCAN_700_rhum_156.txt.gz
RH
87 82 75 67 70 65 57 54 51 54 58 59 69 75 71 63 49 27 29 32 40 42 39 37 35 39 44 43 43 46 50 46 56 58 63 60 76 66 71 61 51 50 54 69 100 97 90 54 63 67 64 65 61 55
88 84 82 79 77 75 75 72 58 51 56 71 81 84 81 84 76 69 61 63 67 68 63 54 47 53 60 57 56 58 54 54 60 64 72 82 85 89 68 75 59 66 57 58 54 57 56 69 74 73 70 71 70 70
9 17 37 43 40 25 27 34 46 76 95 85 92 80 75 90 89 87 80 80 79 78 74 68 70 70 79 78 72 67 61 63 65 66 81 96 94 90 86 84 79 74 64 67 64 60 69 73 89 85 82 82 79 79
23 5 3 2 2 2 3 14 97 94 100 99 99 100 90 99 94 85 88 85 94 97 84 77 86 83 79 76 81 79 66 64 67 88 100 100 100 100 93 86 90 85 77 81 83 81 80 83 85 72 79 81 76 71
39 15 4 3 3 3 3 10 35 77 93 98 97 99 99 93 87 95 85 84 87 90 91 100 90 86 85 82 68 80 85 74 60 76 94 98 100 100 100 100 82 60 73 86 71 80 88 78 61 35 37 38 40 44
11 8 6 6 5 4 4 21 85 62 96 99 99 94 80 98 98 81 87 84 85 91 99 100 99 85 74 78 80 82 59 33 32 30 77 100 99 100 97 93 77 95 100 85 92 94 92 83 69 52 36 23 31 38
14 10 9 9 8 6 6 14 32 40 68 81 97 98 99 94 90 93 90 83 80 81 84 92 70 52 51 50 48 47 44 46 49 55 52 87 92 98 97 96 93 80 85 93 89 83 80 68 61 52 38 40 54 53
23 19 18 16 13 12 17 33 44 80 93 89 93 93 91 91 94 96 93 90 87 75 58 46 49 56 54 49 44 44 48 52 51 54 72 100 93 96 95 93 93 77 61 66 85 96 95 83 68 55 64 87 93 67
40 30 26 39 53 63 96 97 98 93 86 84 86 93 98 100 95 74 61 38 26 36 30 33 35 33 41 50 56 54 55 53 49 43 39 51 69 100 95 64 50 51 77 98 98 95 98 93 94 98 96 76 83 82
42 66 53 62 86 83 82 82 79 83 93 96 100 100 99 96 91 79 64 57 42 37 39 45 50 54 63 68 77 77 66 58 60 66 62 76 62 50 36 44 42 48 84 93 88 100 100 98 98 94 98 100 94 83
49 54 45 63 92 75 69 72 81 86 95 94 92 81 66 59 58 58 58 59 54 51 59 56 49 50 61 60 69 81 75 77 89 78 82 75 56 48 52 55 63 67 69 82 95 100 100 100 95 94 94 96 93 92
88 82 96 97 98 90 84 88 84 78 75 75 73 76 79 79 70 54 39 47 54 59 64 66 77 85 74 84 97 100 93 93 81 91 98 88 55 57 63 64 64 69 78 85 86 98 98 94 97 97 97 94 84 85
85 93 91 96 96 92 90 98 98 97 96 96 89 74 60 55 44 39 36 40 46 42 50 69 81 58 66 88 97 89 95 95 91 93 89 68 58 62 77 83 91 97 96 100 98 98 97 95 89 82 82 70 68 58
92 94 94 96 95 98 96 100 100 82 59 50 47 40 36 31 30 30 23 23 28 38 36 27 22 22 24 30 49 80 88 91 88 94 82 70 66 76 94 97 98 93 86 71 58 61 61 48 63 38 34 32 27 24
96 85 98 97 99 98 95 85 97 99 77 55 38 29 24 17 18 22 22 21 21 21 22 24 27 32 36 36 43 47 60 52 46 39 35 38 60 71 70 45 46 42 30 20 16 16 19 21 24 24 24 25 25 27
98 98 97 94 94 95 86 95 100 99 94 87 47 29 25 24 26 20 19 24 27 33 39 38 39 40 45 46 46 39 45 38 31 28 32 44 41 40 44 54 49 36 22 18 18 21 21 22 26 27 29 29 27 27
99 81 86 95 95 94 95 99 98 99 100 94 48 27 28 25 25 27 30 41 50 54 61 59 60 53 50 60 53 51 37 28 33 37 38 40 51 57 63 54 42 35 25 21 19 25 29 28 28 30 30 34 39 38
93 86 93 95 94 99 98 96 100 90 86 58 40 32 31 29 30 36 47 56 56 59 58 59 59 63 59 40 24 21 33 42 41 48 54 64 63 60 58 50 36 29 28 23 23 30 32 34 39 48 53 44 40 36
86 92 97 86 75 95 98 94 93 89 71 52 41 44 52 54 52 53 62 65 68 64 64 60 70 47 29 26 40 47 51 58 57 54 56 50 56 61 48 32 23 19 20 23 41 44 42 49 59 70 72 73 70 60
97 97 84 78 83 86 92 100 94 91 61 50 43 45 51 44 47 51 57 61 64 70 72 58 33 27 37 43 38 37 45 56 63 55 41 36 38 40 35 25 21 27 34 56 64 70 69 60 56 67 68 76 79 65
98 93 92 92 95 92 96 95 92 83 77 67 56 59 58 48 44 42 45 58 68 67 49 39 41 37 45 44 31 34 41 53 54 46 37 34 25 25 27 29 34 36 59 58 58 58 62 56 64 78 82 74 79 87
95 90 92 92 93 98 98 94 90 79 80 68 61 61 56 45 43 48 68 70 65 53 54 48 43 48 42 33 34 43 48 44 35 30 37 51 43 44 46 44 43 42 46 50 64 60 49 50 63 80 90 78 78 84
98 96 88 94 100 98 97 99 100 89 95 87 72 78 70 64 67 76 91 82 74 65 57 51 42 32 32 36 42 39 38 39 46 58 62 62 63 64 65 59 58 53 51 46 54 50 54 73 84 94 90 82 70 64
97 99 97 97 96 98 97 99 100 99 98 97 97 94 91 91 96 97 86 67 49 34 30 26 30 35 38 40 46 52 56 58 56 58 56 51 46 43 48 44 43 44 43 39 47 67 79 79 72 71 77 86 82 65
99 98 98 97 96 97 98 95 98 97 97 98 100 97 89 71 66 54 43 32 38 36 35 41 46 50 57 55 52 54 55 60 52 42 38 44 50 48 50 52 46 40 56 68 67 70 69 68 69 71 86 98 96 87
97 96 94 92 96 95 93 93 86 76 77 68 58 61 59 71 79 66 35 31 36 43 54 62 67 68 58 61 61 44 39 56 69 68 57 66 70 74 70 66 57 50 64 79 78 76 75 78 84 87 75 82 97 88
46 47 50 52 54 51 50 37 37 50 53 58 63 71 91 100 83 40 39 53 67 66 66 70 72 72 67 61 63 67 67 69 74 74 68 66 67 73 80 80 79 79 88 91 93 93 96 98 96 97 92 82 87 70
34 26 25 32 42 45 52 52 51 52 53 57 67 74 83 78 49 46 54 50 53 50 48 51 60 71 72 68 64 62 64 75 79 76 77 79 82 89 95 99 98 97 98 98 98 98 98 98 96 97 98 88 78 75
34 37 45 42 43 46 42 42 47 52 57 66 77 82 80 62 41 38 41 43 49 56 55 51 52 54 50 53 60 77 86 90 95 87 82 78 76 80 94 97 98 98 97 96 97 98 97 97 98 98 98 97 95 86
33 36 36 37 42 44 46 52 60 69 80 81 79 65 46 33 37 46 40 46 54 49 52 56 58 63 66 73 77 81 90 96 98 99 98 94 94 96 98 98 97 98 97 97 96 96 98 98 98 97 97 98 98 87
51 52 54 55 60 62 75 80 72 69 64 58 64 64 56 58 52 54 57 56 55 58 60 66 75 78 84 87 89 87 80 85 90 96 98 96 96 97 97 97 97 97 97 97 98 98 98 98 98 96 99 100 97 87
64 71 76 63 48 58 57 59 54 48 49 58 66 71 70 68 62 61 60 60 68 74 78 84 83 88 95 96 96 94 91 92 97 97 96 97 96 96 97 97 99 100 99 99 98 98 98 98 96 96 100 100 98 93
58 59 59 53 45 49 55 60 64 68 62 60 60 57 61 65 69 70 73 79 84 87 87 83 88 94 93 92 89 92 95 98 98 97 97 98 99 98 97 97 98 98 98 98 98 98 99 98 98 94 89 93 95 93

GFSWCAN_700_rhum_162.txt.gz
RH
97 100 95 84 83 80 73 65 69 68 78 76 70 67 68 68 64 66 63 61 64 57 57 59 62 57 54 53 53 56 57 51 54 59 66 65 67 64 66 60 54 52 51 66 98 97 87 56 54 55 55 59 68 69
97 98 99 99 89 82 83 81 82 86 84 80 80 78 78 74 73 71 70 70 66 66 61 57 59 62 71 70 72 77 75 71 72 67 76 79 77 89 78 82 69 70 61 58 64 52 52 52 60 68 65 69 73 75
92 89 94 98 98 94 84 85 87 86 91 89 85 80 78 79 75 62 77 81 75 67 56 52 51 60 68 66 81 77 73 79 84 92 100 100 99 97 96 92 88 84 78 73 68 65 63 65 77 80 83 83 90 94
91 82 80 62 41 29 45 55 56 52 55 52 34 87 61 89 75 100 100 100 97 84 77 50 54 63 58 58 82 86 79 85 88 94 98 100 100 100 96 88 89 92 95 88 84 82 77 76 78 90 97 100 98 96
63 64 71 51 52 48 24 16 28 18 5 4 4 12 50 98 70 99 98 95 99 91 92 88 78 65 57 55 62 69 82 82 100 100 99 99 98 98 89 92 99 93 86 85 81 81 85 93 98 99 98 96 95 95
55 51 35 40 45 30 32 36 30 34 18 4 7 91 57 99 98 98 99 88 97 96 100 94 94 86 77 66 55 58 77 100 100 100 97 97 95 98 96 96 93 79 67 68 84 100 98 97 98 98 90 92 86 93
11 11 11 11 10 13 11 9 10 17 14 11 84 95 96 84 63 97 98 97 98 96 98 100 99 89 66 55 47 52 70 91 100 100 100 98 95 98 93 91 69 67 71 98 99 96 94 93 97 89 73 94 96 88
20 17 16 14 11 8 8 8 8 10 15 45 97 100 99 99 96 98 97 86 94 100 99 98 91 82 75 74 69 60 57 57 61 66 80 70 73 86 90 62 58 59 65 76 92 98 100 99 97 98 98 99 92 96
35 30 33 25 21 20 19 15 13 12 12 16 26 61 73 78 90 86 99 100 100 99 97 94 87 84 74 69 65 64 65 64 64 65 62 65 68 78 68 59 62 72 87 100 96 94 86 81 77 77 87 78 88 95
84 65 63 57 42 34 34 30 27 32 41 49 81 94 93 90 94 94 96 90 95 89 100 80 73 72 67 65 64 66 69 63 65 68 68 66 62 51 46 47 45 54 61 64 68 80 89 85 88 94 97 96 95 88
65 90 90 86 90 55 48 41 44 54 80 94 99 96 96 94 91 92 92 86 63 55 60 53 52 56 65 65 69 75 78 74 74 70 73 90 55 37 46 59 64 69 67 76 84 89 99 100 96 93 84 69 56 49
43 75 93 96 88 93 98 98 85 91 84 86 88 86 94 95 87 80 78 89 91 78 72 62 57 61 70 78 83 82 83 83 76 97 96 81 25 56 71 75 62 39 34 50 76 78 62 58 52 44 34 29 23 17
28 56 74 97 86 88 84 88 97 95 76 71 72 66 68 66 61 64 64 61 54 54 52 56 63 70 79 80 88 78 87 92 90 99 79 31 51 66 49 31 23 49 64 79 75 66 55 46 38 34 32 28 22 21
32 33 81 100 99 91 93 96 100 97 96 97 98 93 85 81 74 67 68 64 58 56 52 54 70 76 57 55 76 73 87 91 97 89 42 19 20 20 19 20 24 26 28 54 72 65 47 42 38 32 32 30 32 28
25 32 58 98 96 94 97 98 97 98 97 97 93 84 78 72 60 52 42 33 47 46 42 57 69 40 31 31 32 39 62 61 44 17 16 19 24 31 34 36 37 37 40 63 77 84 69 47 39 42 40 40 33 26
27 28 51 100 100 98 97 99 97 96 99 98 90 73 55 34 30 36 41 36 31 44 66 80 56 40 37 37 38 35 47 22 11 15 21 24 30 35 36 37 39 35 42 50 54 54 53 50 57 61 52 39 25 20
34 21 27 81 98 98 98 99 98 93 99 93 79 62 59 61 51 44 35 32 44 75 81 60 48 34 42 48 32 26 17 16 18 25 36 36 41 40 39 42 39 32 28 31 45 46 38 40 55 56 43 31 22 29
43 28 26 35 92 98 97 98 98 99 94 86 72 59 54 60 46 51 48 50 57 60 52 54 50 47 48 40 30 24 28 32 38 46 55 54 58 54 52 46 40 34 30 32 32 29 30 30 29 26 25 27 47 60
44 41 34 44 70 97 95 98 96 91 87 79 65 59 58 65 56 58 62 62 58 54 62 65 71 62 32 24 27 35 45 53 58 73 84 76 74 69 51 40 37 29 29 32 30 31 41 49 50 45 42 52 71 56
57 51 44 43 73 97 98 95 84 91 89 75 72 78 67 57 50 51 62 67 74 89 89 79 55 38 38 38 51 60 72 84 92 88 81 71 66 51 38 32 30 32 39 34 37 39 42 45 44 50 54 56 57 49
75 67 71 94 98 98 97 88 81 78 75 70 62 69 58 51 56 59 62 71 80 74 58 41 36 44 64 70 77 82 82 78 76 79 75 62 46 40 32 32 31 41 48 48 45 42 50 52 52 50 47 44 47 50
67 75 89 98 98 97 95 88 85 85 85 78 64 51 53 55 53 53 58 56 44 25 29 45 56 56 56 58 55 56 57 67 63 52 41 41 45 36 34 38 44 47 48 46 49 52 49 46 48 54 59 62 67 61
68 83 98 98 98 95 97 88 94 81 71 60 53 54 54 55 54 50 56 32 22 26 53 54 49 48 51 48 53 52 52 51 48 46 45 46 46 40 39 38 49 53 59 64 77 77 72 68 70 74 68 64 66 68
93 99 98 96 97 94 82 85 86 79 64 56 59 64 65 70 61 58 44 26 32 46 43 34 33 31 34 39 41 40 48 55 46 36 35 40 38 40 51 60 67 69 72 78 80 82 80 73 73 72 76 80 84 88
99 99 98 90 78 74 78 73 66 60 56 60 66 69 73 73 73 66 46 31 30 37 44 51 55 56 55 48 44 42 45 51 54 55 55 64 67 66 65 66 65 65 74 87 92 92 89 90 89 90 92 95 93 91
96 92 85 69 69 72 68 71 67 62 66 71 75 71 73 81 79 61 26 31 41 47 62 69 73 67 48 50 48 52 54 58 58 55 54 58 59 63 70 77 76 70 88 93 90 89 91 92 92 91 90 94 99 100
95 81 74 68 74 73 72 65 65 64 64 74 79 78 72 75 51 32 36 52 64 74 81 81 80 72 59 46 54 57 60 67 68 70 73 79 87 96 98 97 96 98 100 99 98 97 96 97 97 99 99 100 100 100
91 78 67 70 71 67 68 64 58 51 45 40 37 41 47 42 39 46 57 62 69 72 72 74 73 69 65 62 64 66 75 77 76 82 86 86 96 97 97 98 98 98 98 98 98 98 98 98 98 99 100 100 100 100
78 87 88 85 64 45 38 34 27 24 30 38 46 52 54 49 48 53 61 66 63 70 72 72 71 69 68 72 77 86 83 83 86 80 78 78 86 98 97 97 98 98 98 97 100 100 98 98 98 98 98 98 99 99
27 27 27 26 24 23 26 35 38 53 55 54 54 50 47 48 58 61 60 62 65 68 67 66 68 75 80 74 70 73 82 91 96 98 95 93 94 96 98 99 98 98 97 96 95 98 99 99 99 100 100 98 98 99
38 42 42 37 35 37 41 41 41 42 44 47 53 57 57 69 68 69 70 71 68 69 70 77 84 86 87 86 78 68 67 73 82 95 98 98 98 100 98 99 100 98 98 98 98 98 98 99 99 98 98 98 97 91
39 39 38 37 41 54 58 56 56 52 48 49 55 64 77 92 77 62 65 74 78 83 88 92 92 93 86 81 78 75 72 80 94 99 98 96 96 100 98 97 100 99 98 99 98 97 97 97 97 97 95 88 85 84
49 51 60 67 68 70 74 74 78 72 65 65 66 64 65 74 75 80 84 88 96 98 98 99 95 84 83 83 78 74 84 98 98 98 97 100 100 93 91 95 100 100 99 97 95 95 93 94 93 91 89 86 83 84